World > North America > United States > Texas

Hourly Turlington, TX Regional Weather

Feedback E-mail the Weather

Quick WX

Turlington, TX Weather Maps

°F °C°F °C
Turlington Weather Map
UTC Time: 7/3/2022, 11:11
Your Time:

Turlington, TX Regional Weather

Expires:202207031200;;605588
ASUS44 KFWD 031110
RWRTX 
NORTH TEXAS HOURLY WEATHER ROUNDUP
NATIONAL WEATHER SERVICE FORT WORTH TX
600 AM CDT SUN JUL 03 2022

NOTE: "FAIR" INDICATES FEW OR NO CLOUDS BELOW 12,000 FEET WITH NO
SIGNIFICANT WEATHER AND/OR OBSTRUCTIONS TO VISIBILITY.


TXZ143>147-156>162-174-175-031200-
CENTRAL TEXAS
  
CITY           SKY/WX    TMP DP  RH WIND       PRES   REMARKS
WACO           FAIR      81  73  76 S15       29.98S                  
WACO-MCGREGOR  FAIR      79  73  82 S9        29.99S                  
HILLSBORO      FAIR      81  74  81 S13       29.98S                  
CORSICANA      FAIR      80  73  79 S10       29.99S                  
MEXIA          FAIR      79  74  84 S9G16     29.99S                  
HEARNE         MOCLDY    80  75  86 S5        30.01S                  
CAMERON        FAIR      79  74  85 S9        29.99S                  
TEMPLE         FAIR      78  74  87 S9        30.00R                  
KILLEEN        FAIR      78  71  81 S9        29.96S                  
KILLEEN-SKYLRK FAIR      78  72  81 S9        30.00R                  
FORT HOOD      FAIR      78  72  81 S7        29.99R                  
GATESVILLE     FAIR      79  72  78 MISG      30.01R                  
HAMILTON       FAIR      78  72  81 S9        30.00S                  
LAMPASAS       FAIR      77  71  82 CALM      29.97R                  
$$


SKY/WX - Weather  TMP - Temperature  DP - Dew Point  RH - Humidity
WIND - Wind Direction/Speed PRES - Barometric Pressure VSB - Visibility
WCI - Wind Chill Index E13G22 Wind - East Wind 13 mph/Gusts of 22 mph

Trending Headlines

Turlington Radar Loop



Turlington Quick Facts


National Two Day Weather Forecast


E-mail the Turlington Weather Forecast

Voice your opinion or tell us about page issues...